Notices

What's New in latest Release from April 7th, 2021:

- Updated Glossary, including Speed of Maximum Gust, and Total Hourly Precipitation

- Updated national and regional climate services offices contacts and prices information

- Addition of station inventory lists for 1981-2010, 1971-2000, and 1961-1990 Normals.

If you haven't already, please take our survey and provide feedback about our website: https://eccc.sondage-survey.ca/f/LanguageSelection.aspx?s=442ca660-fcf1-47c0-95a9-59707d6fd709

Hourly Data Report for April 30, 2004

TORONTO CITY
ONTARIO

43°40'00.000" N
79°24'00.000" W
112.50 m
6158355
71508
XTO

Download Data

Hourly Data (April 2004)
Hourly Data Report for April 30, 2004
TIME
LST
Temp Definition
°C
Dew Point Definition
°C
Rel Hum Definition
%
Precip. Amount Definition
mm

Wind Dir Definition
10's deg

Wind Spd Definition
km/h
Visibility Definition
km
Stn Press Definition
kPa
Hmdx Definition


Wind Chill Definition


Weather Definition


00:00 16.2 7.4 56   LegendMM LegendMM LegendMM 100.40     LegendNANA
01:00 15.1 7.5 60   LegendMM LegendMM LegendMM 100.38     LegendNANA
02:00 14.3 7.3 63   LegendMM LegendMM LegendMM 100.39     LegendNANA
03:00 14.2 7.6 64   LegendMM LegendMM LegendMM 100.35     LegendNANA
04:00 13.8 7.4 65   LegendMM LegendMM LegendMM 100.33     LegendNANA
05:00 14.6 8.3 66   LegendMM LegendMM LegendMM 100.38     LegendNANA
06:00 14.9 8.6 66   LegendMM LegendMM LegendMM 100.44     LegendNANA
07:00 16.5 9.0 61   LegendMM LegendMM LegendMM 100.46     LegendNANA
08:00 15.8 9.0 64   LegendMM LegendMM LegendMM 100.51     LegendNANA
09:00 17.0 8.8 58   LegendMM LegendMM LegendMM 100.55     LegendNANA
10:00 19.5 10.3 55   LegendMM LegendMM LegendMM 100.48     LegendNANA
11:00 20.5 9.7 50   LegendMM LegendMM LegendMM 100.43     LegendNANA
12:00 20.5 10.0 51   LegendMM LegendMM LegendMM 100.38     LegendNANA
13:00 21.6 11.5 53   LegendMM LegendMM LegendMM 100.35     LegendNANA
14:00 19.5 11.0 58   LegendMM LegendMM LegendMM 100.32     LegendNANA
15:00 16.2 12.7 80   LegendMM LegendMM LegendMM 100.38     LegendNANA
16:00 16.8 13.3 80   LegendMM LegendMM LegendMM 100.33     LegendNANA
17:00 15.7 13.1 85   LegendMM LegendMM LegendMM 100.33     LegendNANA
18:00 15.4 14.2 93   LegendMM LegendMM LegendMM 100.31     LegendNANA
19:00 15.7 14.8 94   LegendMM LegendMM LegendMM 100.28     LegendNANA
20:00 15.3 14.1 93   LegendMM LegendMM LegendMM 100.29     LegendNANA
21:00 14.0 13.5 97   LegendMM LegendMM LegendMM 100.29     LegendNANA
22:00 13.0 12.6 97   LegendMM LegendMM LegendMM 100.27     LegendNANA
23:00 12.9 12.6 98   LegendMM LegendMM LegendMM 100.20     LegendNANA

Notes on Data Quality.

Legend

  • E = Estimated
  • M = Missing
  • NA = Not Available*
  • [empty] = Indicates an unobserved value
Date modified: